Location: Hilton Head Island
(32.2163°N, 80.7526°W)
Time: 21:36:30
(UTC-04:00)

Transit 2A Rocket - Pass Details

Date: 06 February 2026
Orbit: 583 x 900 km, 66.7° (Epoch: 12 March)

Event Time Altitude Azimuth Distance (km) Brightness Sun altitude
Rises 17:33:01 0° 172° (S) 3,376 8.5 4.8°
Reaches altitude 10° 17:35:49 10° 159° (SSE) 2,486 7.7 4.2°
Maximum altitude 17:40:27 25° 106° (ESE) 1,704 6.4 3.3°
Drops below altitude 10° 17:45:13 10° 53° (NE) 2,573 7.1 2.4°
Sets 17:48:10 0° 41° (NE) 3,520 7.9 1.8°
